Location: San Martino di Castrozza
(46.2667°N, 11.8000°E)
Time: 15:43:28
(UTC+00:00)

Cosmos 1733 - Pass Details

Date: 23 April 2021
Orbit: 503 x 522 km, 82.5° (Epoch: 13 May)

Event Time Altitude Azimuth Distance (km) Brightness Sun altitude
Rises 01:52:11 0° 355° (N) 2,618 7.4 -21.0°
Reaches altitude 10° 01:54:22 10° 1° (N) 1,726 6.5 -20.7°
Maximum altitude 01:58:03 51° 78° (ENE) 645 3.9 -20.3°
Enters shadow 02:00:25 20° 148° (SSE) 1,209 4.9 -20.0°
